Tracking 29528 objects as of 13-Sep-2024
HD Live streaming from Space Station
objects crossing your sky now

DELTA 1 DEB

Track DELTA 1 DEB now!
10-day predictions


NORAD ID: 10657
Int'l Code: 1976-077T
Perigee: 1,508.5 km
Apogee: 1,641.0 km
Inclination: 102.5 °
Period: 117.5 minutes
Semi major axis: 7945 km
RCS: 0.2985 m2 (medium)
Launch date: July 29, 1976
Source: United States (US)
Launch site: AIR FORCE WESTERN TEST RANGE (AFWTR)

Note: This is SATELLITE DEBRIS
Your satellite tracking list
Your tracking list is empty




NASA's NSSDC Master Catalog

Two Line Element Set (TLE):
1 10657U 76077T   24256.68776350  .00000022  00000-0  59961-3 0  9994
2 10657 102.5141 227.6336 0083416 111.0350  60.8969 12.25745087153577
Source of the keplerian elements: AFSPC